Regional Weather Roundup
Issued by NWS

Home | Current Version | Previous Version | Text Only | Print | Product List | Glossary Off
Versions: 1 2 3 4 5 6 7 8 9 10 11 12 13 14 15 16 17 18 19 20 21 22 23 24 25 26 27 28 29 30 31 32 33 34 35 36 37 38 39 40 41 42 43 44 45 46 47 48 49 50

000
ASUS45 KABQ 162301
RWRNM
NEW MEXICO REGIONAL WEATHER ROUNDUP
NATIONAL WEATHER SERVICE ALBUQUERQUE NM
400 PM MST THU NOV 16 2017

NOTE: "FAIR" MEANS FEW OR NO CLOUDS BELOW 12,000 FEET AGL WITH NO
       SIGNIFICANT WEATHER OR OBSTRUCTIONS TO VISION.

      THIS PRODUCT IS RELEASED AS TWO VERSIONS.  ONE VERSION NEAR
      THE TOP OF THE HOUR CONTAINING PRELIMINARY DATA FROM ALBUQUERQUE
      AND OTHER STATIONS.  A FINAL VERSION WITH ADDITIONAL DATA IS
      ISSUED ABOUT 10 MINUTES AFTER THE HOUR.

NMZ501-503-504-510>518-170000-
NORTHWEST PLATEAU/NORTHCENTRAL MOUNTAINS

CITY           SKY/WX    TMP DP  RH WIND       PRES   REMARKS
FARMINGTON     FAIR      62  22  21 CALM      30.04S
LOS ALAMOS     FAIR      62  22  21 W3        30.15R
SANTA FE       FAIR      65  23  20 W8        30.09S
TAOS           FAIR      61  22  22 SW14      30.13R
ANGEL FIRE     FAIR      52  21  30 SW18G25   30.17R

$$
NMZ402-403-502-505>509-170000-
WESTCENTRAL MOUNTAINS/SOUTHWEST MOUNTAINS

CITY           SKY/WX    TMP DP  RH WIND       PRES   REMARKS
GALLUP         CLOUDY    65  22  19 SW13      30.12S
GRANTS         CLOUDY    70  24  17 W14       30.14R
SILVER CITY    PTSUNNY   74  17  11 W15G22    30.12S

$$
NMZ407-409-411-412-170000-
SOUTHERN DESERTS

CITY           SKY/WX    TMP DP  RH WIND       PRES   REMARKS
DEMING         FAIR      79  19  10 W13       30.05S
LAS CRUCES     FAIR      78  21  12 SW12      30.07S
HOLLOMAN AFB   FAIR      76  27  16 S9        30.06S
ALAMOGORDO     FAIR      75  28  17 S9        30.06R
T OR C         FAIR      80  23  12 S13       30.03F

$$
NMZ519>523-170000-
CENTRAL VALLEYS/CENTRAL HIGHLANDS

CITY           SKY/WX    TMP DP  RH WIND       PRES   REMARKS
ALBUQUERQUE    FAIR      71  21  15 W5        30.05S
MORIARTY ARPT  FAIR      70  22  16 NW8       30.11S
CLINES CORNERS FAIR      63  21  20 W23       30.13R
BELEN          FAIR      71  20  15 S6        30.05S
SOCORRO        FAIR      76  22  13 S7        30.03F

$$
NMZ524>526-539-540-170000-
SOUTHCENTRAL MOUNTAINS

CITY           SKY/WX    TMP DP  RH WIND       PRES   REMARKS
RUIDOSO        FAIR      66  25  20 SW8       30.17S

$$
NMZ527>531-170000-
NORTHEAST HIGHLANDS/NORTHEAST PLAINS

CITY           SKY/WX    TMP DP  RH WIND       PRES   REMARKS
LAS VEGAS      FAIR      68  20  16 W13       30.05R
RATON          FAIR      66  22  18 W13       29.96R
CLAYTON        FAIR      68  25  19 S13       29.89R

$$
NMZ532>537-170000-
EASTCENTRAL PLAINS

CITY           SKY/WX    TMP DP  RH WIND       PRES   REMARKS
SANTA ROSA     FAIR      74  26  16 W17G25    29.97R
TUCUMCARI      FAIR      75  37  25 S15G23    29.89R
CANNON AFB     FAIR      73  33  23 SW13      29.98R
CLOVIS AIRPORT FAIR      72  32  23 SW14      29.97R

$$
NMZ028-029-538-170000-
SOUTHEAST PLAINS

CITY           SKY/WX    TMP DP  RH WIND       PRES   REMARKS
ROSWELL        FAIR      71  46  40 S12       29.97S
ARTESIA        FAIR      70  52  52 SE14      29.98S
CARLSBAD       FAIR      69  54  58 S12       29.98R
HOBBS          CLEAR     68  46  45 S9        30.01F


$$




USA.gov is the U.S. government's official web portal to all federal, state and local government web resources and services.